contact:dominique.lefevre@mio.osupytheas.fr, maurice.libes@osupytheas.fr
Project:EMSO Ligure-ouest http://www.emso-fr.org/EMSO-France
Sensor Aquadopp, line 13 Serial AQD14315 
DOI : "https://doi.org/10.17882/74513; https://doi.org/10.17882/83244" 
Title:EMSO Ligure Ouest : Data ligne ALBATROSS capteur AQUADOPP - deploiement 2021
Id,Date,Profondeur,Latitude,Longitude,X_East,Y_North,Z_Up,Amplitude_X,Amplitude_Y,Amplitude_Z,Batterie,SoundSpeed,Heading,Pitch,Roll,Pressure,Temperature,Speed,Direction
, , m, degrees North, degrees East, m.s-1, m.s-1,m.s-1, 1, 1, 1, Volt, m.s-1, degree, degree, degree, dbar, degree_C, m.s-1, degree
09,2022-02-07T21:30:00,2000.0,42.79,6.0312,-0.006,-0.008,-0.022,63.0,61.0,64.0,12.2,1504.6,225.4,-0.8,0.9,1990.532,13.27,0.01,216.9
09,2022-02-07T22:00:00,2000.0,42.79,6.0312,-0.002,-0.021,0.001,68.0,59.0,60.0,12.2,1504.6,222.8,-0.6,0.9,1990.552,13.27,0.021,185.4
09,2022-02-07T22:30:00,2000.0,42.79,6.0312,-0.013,-0.026,0.0,67.0,61.0,65.0,12.2,1504.6,219.2,-0.8,0.9,1990.546,13.27,0.029,206.6
09,2022-02-07T23:00:00,2000.0,42.79,6.0312,-0.004,-0.036,0.01,68.0,64.0,68.0,12.2,1504.6,225.4,-0.9,0.9,1990.543,13.27,0.036,186.3
09,2022-02-07T23:30:00,2000.0,42.79,6.0312,0.013,-0.02,0.006,64.0,64.0,65.0,12.2,1504.6,230.3,-0.7,0.9,1990.57,13.27,0.023,1.0
09,2022-02-08T00:00:00,2000.0,42.79,6.0312,-0.006,-0.009,-0.026,65.0,68.0,65.0,12.2,1504.6,232.6,-0.8,0.9,1990.55,13.27,0.01,213.7
09,2022-02-08T00:30:00,2000.0,42.79,6.0312,0.006,-0.015,-0.008,66.0,61.0,66.0,12.2,1504.6,231.5,-0.8,0.9,1990.58,13.27,0.016,158.2
09,2022-02-08T01:00:00,2000.0,42.79,6.0312,-0.009,-0.023,-0.014,66.0,62.0,65.0,12.2,1504.6,241.9,-0.8,0.9,1990.563,13.27,0.024,201.4
09,2022-02-08T01:30:00,2000.0,42.79,6.0312,0.011,-0.019,0.006,70.0,61.0,64.0,12.2,1504.6,244.5,-0.8,0.9,1990.53,13.27,0.021,149.9
09,2022-02-08T02:00:00,2000.0,42.79,6.0312,0.01,-0.007,0.007,71.0,61.0,66.0,12.2,1504.6,249.1,-0.8,0.9,1990.542,13.27,0.012,125.0
09,2022-02-08T02:30:00,2000.0,42.79,6.0312,0.011,-0.009,-0.025,64.0,62.0,69.0,12.2,1504.6,255.1,-0.8,0.9,1990.525,13.27,0.014,129.3
09,2022-02-08T03:00:00,2000.0,42.79,6.0312,0.0,-0.009,0.011,66.0,62.0,68.0,12.2,1504.6,259.3,-0.8,0.9,1990.51,13.27,0.009,180.0
09,2022-02-08T03:30:00,2000.0,42.79,6.0312,0.026,-0.008,-0.012,69.0,63.0,68.0,12.2,1504.6,263.1,-0.7,0.9,1990.567,13.27,0.027,107.1
09,2022-02-08T04:00:00,2000.0,42.79,6.0312,0.005,-0.009,0.018,65.0,64.0,64.0,12.2,1504.6,267.3,-0.7,0.9,1990.556,13.27,0.01,150.9
09,2022-02-08T04:30:00,2000.0,42.79,6.0312,0.014,0.0,-0.01,65.0,64.0,67.0,12.2,1504.6,267.2,-0.7,0.9,1990.539,13.27,0.014,90.0
09,2022-02-08T05:00:00,2000.0,42.79,6.0312,0.017,0.009,0.0,71.0,63.0,67.0,12.2,1504.6,264.7,-0.7,1.0,1990.467,13.27,0.019,62.1
09,2022-02-08T05:30:00,2000.0,42.79,6.0312,0.031,-0.006,0.013,69.0,63.0,69.0,12.2,1504.6,262.0,-0.7,0.9,1990.51,13.27,0.031,101.0
09,2022-02-08T06:00:00,2000.0,42.79,6.0312,0.006,-0.009,-0.006,69.0,61.0,67.0,12.2,1504.6,261.7,-0.7,1.0,1990.481,13.27,0.01,146.3
09,2022-02-08T06:30:00,2000.0,42.79,6.0312,0.017,-0.025,-0.018,65.0,64.0,68.0,12.2,1504.6,249.2,-0.7,0.9,1990.517,13.27,0.03,145.8
09,2022-02-08T07:00:00,2000.0,42.79,6.0312,0.018,-0.021,-0.031,66.0,63.0,66.0,12.2,1504.6,249.2,-0.7,0.9,1990.511,13.27,0.027,139.4
09,2022-02-08T07:30:00,2000.0,42.79,6.0312,0.014,-0.017,-0.011,65.0,62.0,66.0,12.2,1504.6,248.2,-0.6,1.0,1990.523,13.27,0.022,140.5
09,2022-02-08T08:00:00,2000.0,42.79,6.0312,0.017,-0.006,-0.036,67.0,63.0,65.0,12.2,1504.6,229.6,-0.7,1.0,1990.528,13.27,0.018,109.4
09,2022-02-08T08:30:00,2000.0,42.79,6.0312,0.031,-0.038,-0.011,67.0,65.0,64.0,12.2,1504.6,221.5,-0.5,0.9,1990.513,13.27,0.049,140.8
09,2022-02-08T09:00:00,2000.0,42.79,6.0312,0.018,-0.008,0.031,64.0,62.0,63.0,12.2,1504.6,212.9,-0.7,1.0,1990.564,13.27,0.019,114.0
09,2022-02-08T09:30:00,2000.0,42.79,6.0312,0.029,-0.022,-0.003,64.0,60.0,62.0,12.2,1504.6,201.7,-0.7,0.9,1990.614,13.27,0.036,127.2
09,2022-02-08T10:00:00,2000.0,42.79,6.0312,0.014,-0.036,0.012,62.0,62.0,63.0,12.2,1504.6,201.1,-0.7,0.9,1990.599,13.27,0.038,158.8
09,2022-02-08T10:30:00,2000.0,42.79,6.0312,0.041,-0.023,-0.039,65.0,65.0,66.0,12.2,1504.6,198.2,-0.4,0.9,1990.586,13.27,0.047,119.3
09,2022-02-08T11:00:00,2000.0,42.79,6.0312,0.01,-0.046,-0.012,70.0,63.0,65.0,12.2,1504.6,203.9,-0.7,0.9,1990.623,13.27,0.047,167.7
09,2022-02-08T11:30:00,2000.0,42.79,6.0312,0.0,-0.02,0.002,69.0,63.0,66.0,12.2,1504.6,210.1,-0.9,0.9,1990.639,13.27,0.02,180.0
09,2022-02-08T12:00:00,2000.0,42.79,6.0312,0.011,-0.029,0.034,66.0,63.0,66.0,12.2,1504.6,193.4,-0.8,0.9,1990.61,13.27,0.031,159.2
09,2022-02-08T12:30:00,2000.0,42.79,6.0312,0.022,-0.027,0.014,66.0,64.0,65.0,12.2,1504.6,194.5,-0.8,1.0,1990.645,13.27,0.034,1.0
09,2022-02-08T13:00:00,2000.0,42.79,6.0312,0.005,-0.026,-0.018,66.0,63.0,65.0,12.2,1504.6,194.1,-0.7,0.9,1990.666,13.27,0.026,169.1
09,2022-02-08T13:30:00,2000.0,42.79,6.0312,0.009,-0.045,0.0,64.0,62.0,66.0,12.2,1504.6,188.0,-0.9,0.9,1990.591,13.27,0.045,168.7
09,2022-02-08T14:00:00,2000.0,42.79,6.0312,0.007,-0.002,0.004,67.0,61.0,66.0,12.2,1504.6,191.1,-0.7,1.0,1990.65,13.27,0.007,105.9
09,2022-02-08T14:30:00,2000.0,42.79,6.0312,0.004,0.001,-0.03,69.0,64.0,68.0,12.2,1504.6,195.2,-0.7,0.9,1990.637,13.27,0.004,76.0
09,2022-02-08T15:00:00,2000.0,42.79,6.0312,-0.01,0.0,-0.044,72.0,63.0,69.0,12.2,1504.6,195.3,-0.8,0.9,1990.618,13.27,0.01,270.0
09,2022-02-08T15:30:00,2000.0,42.79,6.0312,0.007,-0.002,-0.024,72.0,65.0,65.0,12.2,1504.6,194.3,-0.8,0.9,1990.617,13.27,0.007,105.9
09,2022-02-08T16:00:00,2000.0,42.79,6.0312,0.009,-0.003,-0.036,68.0,61.0,63.0,12.2,1504.6,202.6,-0.7,0.9,1990.54,13.27,0.009,108.4
09,2022-02-08T16:30:00,2000.0,42.79,6.0312,0.033,0.003,-0.001,67.0,60.0,63.0,12.2,1504.6,207.1,-0.7,1.0,1990.561,13.27,0.033,84.8
09,2022-02-08T17:00:00,2000.0,42.79,6.0312,0.012,0.002,0.007,69.0,62.0,69.0,12.2,1504.6,205.1,-0.8,0.9,1990.553,13.27,0.012,80.5
09,2022-02-08T17:30:00,2000.0,42.79,6.0312,0.021,-0.012,0.003,65.0,62.0,67.0,12.2,1504.6,212.0,-0.7,0.9,1990.53,13.27,0.024,119.7
09,2022-02-08T18:00:00,2000.0,42.79,6.0312,0.014,0.003,0.005,71.0,63.0,68.0,12.2,1504.6,211.1,-0.6,0.9,1990.532,13.27,0.014,77.9
09,2022-02-08T18:30:00,2000.0,42.79,6.0312,0.042,0.004,0.007,67.0,65.0,69.0,12.2,1504.7,204.6,-0.8,0.9,1990.542,13.28,0.042,84.6
09,2022-02-08T19:00:00,2000.0,42.79,6.0312,0.038,-0.013,-0.025,69.0,64.0,68.0,12.2,1504.7,198.0,-0.8,1.0,1990.534,13.28,0.04,108.9
09,2022-02-08T19:30:00,2000.0,42.79,6.0312,0.036,0.003,-0.018,66.0,67.0,67.0,12.2,1504.7,192.9,-0.8,0.9,1990.543,13.28,0.036,85.2
09,2022-02-08T20:00:00,2000.0,42.79,6.0312,0.041,-0.008,-0.017,72.0,65.0,66.0,12.2,1504.7,187.2,-0.7,0.9,1990.545,13.28,0.041,101.0
09,2022-02-08T20:30:00,2000.0,42.79,6.0312,0.051,0.004,-0.008,70.0,66.0,68.0,12.2,1504.7,183.7,-0.8,0.9,1990.489,13.28,0.051,85.5
09,2022-02-08T21:00:00,2000.0,42.79,6.0312,0.053,-0.007,-0.005,69.0,64.0,68.0,12.2,1504.7,183.1,-0.8,0.9,1990.588,13.28,0.053,97.5
